OpenBCM V1.13 (Linux)

Packet Radio Mailbox

DB0FHN

[JN59NK Nuernberg]

 Login: GUEST





  
LU1HVK > KEP      10.01.20 17:41l 243 Lines 12025 Bytes #999 (0) @ WW
BID : 38579_LU1HVK
Read: DJ6UX GUEST
Subj: TLE 18 10
Path: DB0FHN<OE2XZR<OE5XBL<F1OYP<IZ3LSV<IV3SCP<IW0QNL<JH4XSY<N3HYM<IV3BVK<
      IK5FKA<LU9HGS<LU1HVK
Sent: 200110/1534Z 38579@LU1HVK.2594.CBA.ARG.SA LinBPQ6.0.19

                         _    _   _ _ _   ___     ___  __
                        | |  | | | / | | | \ \   / / |/ /
                        | |  | | | | | |_| |\ \ / /| ' /
                        | |__| |_| | |  _  | \ V / | . \
                        |_____\___/|_|_| |_|  \_/  |_|\_\

     BBS/NODO - CORDOBA (LEONES-FF87UH) - LU1HVK-4 NODO - LU1HVK-3 APRS

+----------------------------------------------------------------------------+
OSCAR 7
1  7530U 74089B   19290.91552155 -.00000042 +00000-0 +17471-4 0  9998
2  7530 101.7610 257.3998 0012394 112.0402 268.7050 12.53640306055474
OSCAR 11 (UoSAT 2)
1 14781U 84021B   19290.66991600 +.00000033 +00000-0 +10165-4 0  9997
2 14781 097.6047 309.6248 0007012 285.0740 074.9699 14.83112745895691
OSCAR 19 (LUSAT)
1 20442U 90005G   19290.81886400 +.00000004 +00000-0 +17752-4 0  9992
2 20442 098.6592 232.6691 0012245 147.7585 212.4350 14.32935249553667
EYESAT A
1 22825U 93061C   19290.89176840 -.00000014 +00000-0 +12725-4 0  9999
2 22825 098.9135 282.3512 0008642 013.2565 346.8842 14.30068695359005
ITAMSAT
1 22826U 93061D   19290.72528182 -.00000008 +00000-0 +15019-4 0  9994
2 22826 098.9074 282.1571 0008963 002.2211 357.9008 14.30402854359201
RADIO ROSTO
1 23439U 94085A   19290.84459813 -.00000041 +00000-0 +35729-4 0  9996
2 23439 064.8147 280.2033 0145232 089.5894 272.1669 11.27568333021556
JAS 2
1 24278U 96046B   19290.81777262 -.00000003 +00000-0 +36052-4 0  9993
2 24278 098.5563 067.8954 0349303 286.0497 070.2445 13.53093928143933
TECHSAT 1B
1 25397U 98043D   19290.78359889 -.00000006 +00000-0 +16740-4 0  9997
2 25397 098.6981 229.5060 0002244 064.5268 295.6143 14.23672312104888
ISS (ZARYA)
1 25544U 98067A   19291.02959946  .00000561  00000-0  17764-4 0  9997
2 25544  51.6430 112.1371 0007026 158.5807 344.8046 15.50203097194315
PCSAT
1 26931U 01043C   19290.80153126 -.00000041 +00000-0 +16104-4 0  9998
2 26931 067.0523 051.1541 0007467 268.0426 091.9820 14.30555415942226
SAUDISAT 1C
1 27607U 02058C   19290.72700859  .00000008  00000-0  21947-4 0  9991
2 27607  64.5565  39.5423 0074859 232.9662 126.4578 14.75579720904894
CUTE-1
1 27844U 03031E   19290.45053128 +.00000040 +00000-0 +37606-4 0  9991
2 27844 098.6853 296.8640 0010622 046.3419 313.8638 14.22199732845413
CUBESAT XI 4
1 27848U 03031J   19290.47713428 +.00000024 +00000-0 +30599-4 0  9999
2 27848 098.6928 297.4148 0010664 057.1716 303.0486 14.21792106845275
MOZHAYETS 4
1 27939U 03042A   19290.92800296 -.00000034 +00000-0 +25712-5 0  9996
2 27939 098.0583 064.5044 0013732 048.0188 312.2169 14.66809152858314
CUBESAT XI 5
1 28895U 05043F   19290.85046222 +.00000136 +00000-0 +34998-4 0  9991
2 28895 097.9771 069.5537 0016079 333.3447 026.6928 14.63700299744974
CUTE-1.7+APD II
1 32785U 08021C   19290.76833351 +.00000166 +00000-0 +23501-4 0  9991
2 32785 097.5565 284.8135 0012071 216.1927 143.8475 14.88358108621629
DELFI C3
1 32789U 08021G   19290.72511662  .00000880  00000-0  62437-4 0  9993
2 32789  97.4520 336.6701 0013677  74.5106 285.7631 15.07179301625190
SEEDS
1 32791U 08021J   19290.71664530 +.00000144 +00000-0 +19907-4 0  9995
2 32791 097.5318 290.8457 0013014 188.2584 171.8423 14.90887877622068
YUBELEINY
1 32953U 08025A   19290.85324847  .00000020  00000-0  75656-4 0  9994
2 32953  82.5007  69.4041 0018946 223.3698 136.5892 12.43091854517364
PRISM (HITOMI)
1 33493U 09002B   19290.73601006 +.00000729 +00000-0 +69185-4 0  9998
2 33493 098.1220 216.2836 0015932 138.7493 221.4934 14.96760385583245
KKS-1 (KISEKI)
1 33499U 09002H   19290.86253288 +.00000070 +00000-0 +18276-4 0  9997
2 33499 098.3407 133.3919 0009163 173.2384 186.8950 14.75469927576668
SWISSCUBE
1 35932U 09051B   19290.72787694 +.00000106 +00000-0 +34989-4 0  9992
2 35932 098.5990 100.3332 0008193 147.8208 212.3491 14.56318686534357
BEESAT
1 35933U 09051C   19290.72360759 +.00000083 +00000-0 +29724-4 0  9997
2 35933 098.6008 102.1371 0006174 157.8399 202.3065 14.56403495534428
ITUPSAT 1
1 35935U 09051E   19290.71375736  .00000084  00000-0  30512-4 0  9997
2 35935  98.6117 102.3554 0008504 158.3442 201.8115 14.55558904534245
XIWANG-1 (HOPE-1)
1 36122U 09072B   19290.73513151 -.00000033 +00000-0 +24862-4 0  9992
2 36122 100.0783 287.4471 0008191 065.1386 295.0570 13.16351601472802
TISAT 1
1 36799U 10035E   19290.73774274 +.00000288 +00000-0 +35075-4 0  9997
2 36799 098.1713 087.0267 0013243 053.1309 307.1120 14.91178000502607
JUGNU
1 37839U 11058B   19290.46667006  .00000310  00000-0  23044-4 0  9992
2 37839  19.9626 322.3798 0018777 218.1503 282.1749 14.12661437414354
SRMSAT
1 37841U 11058D   19290.68620359  .00000284  00000-0  10702-4 0  9996
2 37841  19.9734  20.3240 0011952  85.4932  39.4387 14.10641052413790
M-CUBED/EXP-1 PRIME
1 37855U 11061F   19290.75308861  .00001391  00000-0  76746-4 0  9994
2 37855 101.7171 248.5059 0173001  77.8339 284.2192 15.05649983434997
HORYU 2
1 38340U 12025D   19290.80792806 +.00000158 +00000-0 +30987-4 0  9994
2 38340 098.3170 332.9584 0012793 098.2054 262.0605 14.75760455388613
STRAND 1
1 39090U 13009E   19290.82346398 +.00000008 +00000-0 +18059-4 0  9993
2 39090 098.4763 134.6895 0008140 292.5307 067.5017 14.35100672347747
SOMP
1 39134U 13015E   19290.59758070 +.00001021 +00000-0 +55359-4 0  9997
2 39134 064.8641 348.6613 0037202 283.3095 076.3885 15.20400638358592
BEESAT 3
1 39135U 13015F   19290.66966650  .00000750  00000-0  46501-4 0  9998
2 39135  64.8696   8.4429 0036949 291.0861  68.6316 15.17657647358608
BEESAT 2
1 39136U 13015G   19290.68688089 +.00000687 +00000-0 +44293-4 0  9993
2 39136 064.8703 012.5594 0028641 296.3050 063.5135 15.17074857358132
CUBEBUG 1
1 39153U 13018D   19290.73491103  .00000194  00000-0  32134-4 0  9994
2 39153  97.9812  28.1985 0017427 162.1285 198.0544 14.80608214349728
ZACUBE
1 39417U 13066B   19290.49738497 +.00000184 +00000-0 +29500-4 0  9995
2 39417 097.5626 297.2101 0058890 359.4146 000.6989 14.81161899318928
TRITON 1
1 39427U 13066M   19290.86180484 +.00000162 +00000-0 +33531-4 0  9999
2 39427 097.6916 260.8475 0114689 136.9874 224.0369 14.67890553315928
GOMX 1
1 39430U 13066Q   19290.92005983 +.00000132 +00000-0 +33322-4 0  9995
2 39430 097.7597 239.5661 0149903 231.8280 126.9344 14.59296617314284
HUMSAT D
1 39433U 13066T   19290.58192016 +.00000252 +00000-0 +29851-4 0  9999
2 39433 097.5408 333.0689 0029231 256.4516 103.3447 14.92272100319929
CUBEBUG 2
1 39440U 13066AA  19290.90602126 +.00000194 +00000-0 +33819-4 0  9995
2 39440 097.6103 282.2334 0081416 051.8587 308.9925 14.75898983316655
FUNCUBE 1
1 39444U 13066AE  19290.76850183 +.00000226 +00000-0 +34178-4 0  9996
2 39444 097.5596 299.5250 0057804 351.8747 008.1525 14.81990608317275
UWE-3
1 39446U 13066AG  19290.43176440  .00000195  00000-0  32480-4 0  9998
2 39446  97.5857 288.9266 0070705  27.1833 333.3053 14.78434207317105
SPROUT
1 39770U 14029E   19290.72294508  .00000480  00000-0  59055-4 0  9990
2 39770  97.8899  33.2688 0010008  52.6678 307.5471 14.87458855292826
UNISAT 6
1 40012U 14033C   19290.78094278 +.00000162 +00000-0 +31279-4 0  9999
2 40012 097.7392 152.0701 0059676 067.5963 293.1554 14.74018583286524
DUCHIFAT 1
1 40021U 14033M   19290.83987792 +.00000276 +00000-0 +34003-4 0  9991
2 40021 097.9251 215.8384 0013456 016.8200 343.3461 14.90706345289595
QB50P1
1 40025U 14033R   19290.73080203 +.00000294 +00000-0 +37180-4 0  9994
2 40025 097.9041 210.2058 0013143 027.1099 333.0802 14.88999363288828
CHUBUSAT 1
1 40300U 14070C   19290.82650255  .00000545  00000-0  26603-4 0  9998
2 40300  97.3168   1.8883 0020275 353.4121 144.2947 15.22206808274442
NUDT-PHONESAT
1 40900U 15049B   19290.86646569 +.00001684 +00000-0 +74164-4 0  9998
2 40900 097.4368 299.0374 0014281 116.1434 327.7116 15.23144706226103
ZDPS 2A
1 40901U 15049C   19290.91666919 +.00000547 +00000-0 +30302-4 0  9999
2 40901 097.4621 295.0094 0014446 136.1382 313.7117 15.17874712225620
ZDPS 2B
1 40902U 15049D   19290.94323858 +.00000769 +00000-0 +41356-4 0  9992
2 40902 097.4576 292.4349 0014450 132.6396 253.4964 15.17741180225605
XW-2A
1 40903U 15049E   19290.93997863 +.00001568 +00000-0 +38444-4 0  9997
2 40903 097.3249 334.3244 0015179 068.9221 055.1194 15.42196627228938
KAITUO 1A
1 40904U 15049F   19290.95480002 +.00000317 +00000-0 +20199-4 0  9991
2 40904 097.4709 290.9187 0015418 142.3528 248.4744 15.15463421225368
OBJECT G
1 40905U 15049G   19290.93438359 +.00000509 +00000-0 +31243-4 0  9993
2 40905 097.4765 288.3245 0016531 138.3648 312.3528 15.14365257225225
XW-2C
1 40906U 15049H   19290.87428131 +.00000579 +00000-0 +33745-4 0  9990
2 40906 097.4713 290.9773 0015736 133.8906 310.5557 15.15783740225355
XW-2D
1 40907U 15049J   19290.83650485  .00000318  00000-0  20006-4 0  9993
2 40907  97.4696 290.6206 0015068 130.8725 313.0798 15.15979089225367
LILACSAT 2
1 40908U 15049K   19290.95138513 +.00000135 +00000-0 +11049-4 0  9994
2 40908 097.4833 289.4242 0016649 138.3294 306.4943 15.13865728225154
XW-2F
1 40910U 15049M   19290.88034247 +.00000826 +00000-0 +44521-4 0  9996
2 40910 097.4661 292.8496 0016034 123.6646 321.3985 15.17469459225394
XW-2B
1 40911U 15049N   19290.87489059 +.00000666 +00000-0 +38161-4 0  9996
2 40911 097.4716 291.3290 0015148 132.1662 312.2556 15.15910036225269
KAITUO 1B
1 40912U 15049P   19290.78644880  .00000926  00000-0  46341-4 0  9990
2 40912  97.4509 296.5900 0016462 107.4693 305.5267 15.19802545225706
TIANWANG 1C (TW-1C)
1 40926U 15051B   19290.87514581  .00011419  00000-0  15343-3 0  9998
2 40926  97.1220 336.9774 0005340 282.6636 131.5000 15.58051992229017
TIANWANG 1B (TW-1B)
1 40927U 15051C   19290.90596792 +.00010927 +00000-0 +15664-3 0  9996
2 40927 097.1250 336.1282 0005697 297.6981 164.6321 15.56311357228857
